SYRACUSE 3B

Last updated on Tue Dec 16 2025 00:02:48 GMT+0000 (Coordinated Universal Time)

1 29273U 06033B 25349.27311898 .00000041 00000+0 00000+0 0 9990 2 29273 2.4279 82.4060 0003984 183.8837 279.5171 1.00270380 70832
UTC large
Height (km)
Speed (km/s)
/
Latitude / Longitude
Inclination (degrees)
Orbital Period (minutes)
Azimuth
Elevation
Range (km)
Doppler Factor

Next 0 passes for location: London (51.5072 / 0.1276)

Sorry there are no passes over London.